Satellite-Ground Cal/Val Site Overpasses Predictions

Prediction of Satellite NPP Overpassing Cal/Val Site: Antarctic Dome C

Ground Cal/Val Site Location: Latitude: -75.10, Longitude: 123.35; Satellite-Ground Site NADIR distance within 100 km.

Table of predicted overpasses for the next 14.0 days since TLE Epoch: 1/1/2015
Interval Starting Time Ending Time Minimum Distance Time Minimum Distance (km)
1 01/02/2015 15:15:09 01/02/2015 15:15:20 01/02/2015 15:15:14 92.57
2 01/03/2015 14:56:09 01/03/2015 14:56:38 01/03/2015 14:56:23 18.89
3 01/05/2015 07:38:55 01/05/2015 07:39:24 01/05/2015 07:39:10 6.36
4 01/08/2015 15:02:17 01/08/2015 15:02:45 01/08/2015 15:02:31 17.30
5 01/09/2015 14:43:33 01/09/2015 14:43:46 01/09/2015 14:43:40 89.82
6 01/10/2015 07:45:04 01/10/2015 07:45:31 01/10/2015 07:45:17 41.64
7 01/11/2015 07:26:15 01/11/2015 07:26:36 01/11/2015 07:26:25 68.43
8 01/13/2015 15:08:25 01/13/2015 15:08:50 01/13/2015 15:08:38 54.14
9 01/14/2015 14:49:34 01/14/2015 14:49:59 01/14/2015 14:49:47 55.19
